Vorticity
nan nan nan nan nan nan nan nan nan nan nan nan nan nan nan nan nan nan nan nan nan nan nan nan nan nan nan nan nan nan nan nan nan nan nan nan nan nan nan nan nan nan nan
nan 6 8 8 8 10 7 6 10 9 8 8 9 10 10 9 8 7 6 8 12 10 9 9 10 11 10 10 7 7 6 8 10 10 10 10 8 9 12 11 8 6 nan
nan 7 9 9 8 9 8 8 9 9 8 10 10 9 8 9 10 10 8 8 8 8 8 11 12 9 10 9 9 8 10 12 8 7 8 10 10 10 12 11 10 10 nan
nan 10 8 7 8 8 9 10 9 9 9 10 9 9 10 11 11 10 11 10 9 10 10 8 8 11 10 9 11 9 8 7 10 11 10 8 9 10 10 10 10 11 nan
nan 8 8 10 9 11 9 8 9 9 10 10 10 9 9 12 9 8 9 11 10 9 10 9 9 5 5 10 11 8 7 10 9 9 10 9 9 9 9 9 9 9 nan
nan 10 8 9 10 10 10 10 11 11 12 11 10 11 11 9 4 6 10 11 11 12 9 10 10 11 9 11 11 9 5 5 5 7 8 10 8 7 9 9 9 9 nan
nan 7 8 7 8 9 9 8 10 12 11 11 12 11 11 11 12 10 8 10 11 10 9 8 8 10 10 12 13 16 14 10 5 4 7 4 5 8 9 12 11 10 nan
nan 6 6 6 6 7 8 9 10 12 11 11 12 10 11 11 11 12 11 9 10 9 9 8 9 9 8 9 8 9 12 14 15 12 11 9 9 6 8 9 8 10 nan
nan 7 7 7 6 5 7 9 10 11 12 13 10 11 11 8 9 11 11 13 12 14 13 12 8 8 8 11 9 9 9 8 14 15 14 13 13 8 4 6 11 11 nan
nan 8 7 7 7 8 7 9 8 9 12 11 12 13 12 13 16 12 8 10 13 14 13 16 16 10 12 7 6 9 10 12 9 10 10 14 13 14 12 6 7 9 nan
nan 9 9 9 10 12 8 7 8 8 10 11 14 13 16 17 16 16 11 5 7 9 11 14 18 18 22 13 7 5 7 8 12 14 9 11 14 13 12 12 10 9 nan
nan 10 11 11 10 10 12 9 9 13 11 11 14 16 16 17 20 18 17 9 2 7 9 5 3 10 13 17 14 13 13 8 9 12 13 12 12 10 12 15 12 9 nan
nan 10 12 12 12 11 10 12 10 11 12 13 13 13 14 17 20 24 24 21 12 6 6 6 6 6 0 12 21 16 14 12 12 13 11 10 10 9 12 14 12 13 nan
nan 11 12 14 11 13 11 8 10 11 14 9 7 11 13 14 13 15 19 24 21 13 18 19 21 17 15 10 15 18 12 13 13 12 11 12 10 10 11 7 12 12 nan
nan 12 13 9 12 12 10 8 9 10 13 6 2 3 8 9 6 8 11 10 13 6 9 16 21 17 21 22 16 12 9 12 11 11 12 12 11 11 11 10 10 11 nan
nan 9 12 10 12 11 9 13 16 12 10 8 5 -0 -5 -5 9 24 30 26 15 8 2 6 8 9 9 17 16 13 14 12 13 13 12 11 12 12 12 12 12 13 nan
nan 8 8 10 10 9 11 11 11 17 18 13 10 2 -3 0 13 22 34 47 35 18 9 9 7 7 9 10 14 16 15 16 13 12 13 12 12 12 14 14 12 11 nan
nan 15 7 7 10 12 10 11 9 10 10 12 15 10 2 3 12 26 34 34 25 15 12 13 11 11 11 8 13 16 16 16 14 13 12 12 12 13 11 15 16 15 nan
nan 10 10 11 12 14 9 10 9 10 13 11 12 13 6 4 17 17 20 21 17 24 25 18 16 17 19 21 20 16 16 15 13 12 10 11 13 13 13 11 12 13 nan
nan 12 9 6 10 13 11 10 16 12 10 11 12 12 10 7 11 15 12 10 15 15 15 17 21 23 21 20 16 18 15 14 15 13 13 17 14 10 11 10 11 8 nan
nan 11 15 11 9 13 13 11 11 13 11 12 13 17 8 9 8 8 9 9 9 10 10 13 13 15 13 13 15 12 12 12 8 11 13 9 11 12 10 10 8 13 nan
nan 10 10 11 12 8 9 17 11 11 12 11 19 20 9 4 8 8 8 8 8 9 10 11 11 11 10 8 9 10 10 11 17 9 10 10 10 7 7 9 12 11 nan
nan 12 10 10 9 10 11 9 13 10 12 15 16 16 13 9 9 9 10 11 11 11 10 10 11 9 9 12 12 12 11 13 15 11 8 10 12 18 20 13 14 14 nan
nan 9 10 12 11 11 9 9 12 11 11 11 12 15 21 15 10 12 9 10 11 14 15 11 13 15 13 12 10 10 10 14 14 12 14 15 16 17 12 14 14 21 nan
nan 13 14 15 12 11 12 10 10 11 12 11 11 11 9 12 21 20 12 11 7 8 11 11 10 11 14 11 9 9 9 11 10 14 14 12 9 10 15 11 11 8 nan
nan nan nan nan nan nan nan nan nan nan nan nan nan nan nan nan nan nan nan nan nan nan nan nan nan nan nan nan nan nan nan nan nan nan nan nan nan nan nan nan nan nan nan
CAPE
0 0 0 0 35 73 24 112 71 158 306 327 359 367 258 272 395 654 1537 1445 2199 2871 3477 3232 2935 3634 1991 2142 2219 1986 1677 1535 1951 1029 653 769 2342 2082 1024 975 606 1352 895
0 0 0 0 0 0 26 3 0 18 26 51 133 246 361 396 421 405 242 194 547 1009 2044 2864 2809 3251 3283 3192 2430 2881 2789 2955 2630 2795 1983 1449 2320 2214 2507 3049 1494 816 625
0 0 0 0 0 0 0 0 0 0 0 0 5 86 178 300 321 316 400 251 162 131 394 1387 2805 3199 3439 3171 3027 2929 2109 2661 2365 2051 1929 1829 1582 1675 2119 3008 2832 2386 1107
0 0 0 0 0 0 0 0 0 0 0 0 0 2 8 78 115 250 321 346 231 45 41 261 1026 2098 2821 3386 3161 3133 2993 2746 2647 2604 2464 2070 1775 1950 1680 1557 1347 1422 1153
0 0 0 0 0 0 7 2 2 3 4 5 11 2 5 2 1 17 141 355 297 204 116 16 3 8 197 858 2565 2730 2840 2609 2663 2374 2133 1643 1719 1590 1541 1460 1228 897 1374
0 0 0 0 0 0 0 1 6 10 19 27 14 15 23 1 0 0 0 0 24 44 19 10 6 0 0 0 0 352 1467 2297 2181 2213 2144 2082 1877 1842 1476 1216 1326 1172 900
0 0 0 1 1 3 5 8 9 21 43 46 59 69 60 54 11 6 13 13 17 45 70 53 25 0 0 0 0 0 108 155 317 1836 2069 2518 2643 2449 2469 2757 2221 1957 1630
0 0 0 0 0 3 4 15 30 24 30 48 46 70 79 64 21 15 19 64 61 46 40 59 80 60 31 2 0 55 636 2273 1900 1220 1349 1693 1933 1555 1873 1869 2437 2963 2566
0 1 5 10 13 9 5 10 21 15 45 63 52 71 80 68 25 12 24 64 62 62 62 74 69 55 27 1 0 0 0 4 553 688 1437 919 420 110 40 98 218 769 768
6 8 14 15 18 23 21 52 45 42 90 46 15 24 20 25 17 3 6 56 52 37 44 44 27 32 12 2 0 3 9 18 267 971 364 3 0 10 0 410 761 624 502
13 19 17 25 72 98 64 83 99 96 85 2 12 22 19 14 9 2 0 24 20 26 28 25 26 2 0 0 0 0 0 66 700 1067 1243 889 432 855 1116 772 1088 1145 951
41 38 61 129 145 123 261 219 186 152 129 27 13 14 12 15 6 4 0 0 1 13 16 28 34 16 0 0 0 0 0 0 19 700 860 569 486 956 741 1190 1698 1725 1475
54 139 160 214 335 354 346 149 85 80 127 36 14 13 15 33 28 3 0 0 0 3 21 25 7 0 0 0 0 0 0 9 200 438 278 380 569 980 556 1499 1610 1955 1914
99 223 157 239 218 172 147 98 94 71 45 11 5 8 9 18 22 23 23 10 0 2 7 3 1 2 0 0 0 0 0 288 682 240 145 439 789 1140 992 1093 1004 1395 1410
132 45 68 77 107 163 184 93 102 164 36 37 0 0 3 9 9 1 1 4 11 8 0 2 11 6 45 23 4 1 2 497 209 307 413 342 661 689 708 799 1190 1353 749
148 78 81 70 61 88 69 71 11 0 0 18 0 0 0 0 0 0 0 0 0 0 0 14 8 13 13 42 234 421 544 371 239 513 786 1088 736 1128 965 1227 1322 1124 905
370 193 108 64 68 46 47 109 114 123 17 16 19 0 0 0 0 0 0 0 0 0 0 5 6 11 14 14 838 669 677 645 833 687 591 392 292 304 2 108 389 112 14
275 94 157 53 60 58 80 142 95 165 213 132 78 22 2 0 0 0 1 0 3 2 13 9 9 12 16 26 642 891 740 615 721 290 188 139 45 8 2 0 9 4 8
132 77 63 53 115 54 78 92 107 151 224 226 274 78 0 0 0 0 0 10 12 8 8 14 11 20 7 74 677 418 375 252 131 311 34 37 1 0 11 16 9 5 2
104 54 43 56 48 56 102 74 72 141 220 221 238 139 30 0 0 2 12 10 16 14 7 11 9 4 29 12 4 3 3 2 3 0 0 0 4 0 18 1 10 15 12
86 59 48 51 46 56 83 127 126 82 247 100 72 102 0 56 40 6 9 16 11 4 4 5 9 5 9 7 12 4 6 1 6 3 0 0 0 2 2 29 43 22 12
96 101 74 55 97 87 84 117 125 75 76 50 35 66 0 45 44 69 24 5 4 4 7 5 4 2 3 2 2 6 1 5 64 8 11 44 37 1 0 33 66 20 7
90 85 79 91 71 55 93 58 67 65 42 46 26 34 69 22 34 44 50 47 25 44 11 0 1 0 0 0 0 0 0 4 0 38 38 25 0 12 52 44 47 57 60
78 73 66 61 80 48 55 55 53 5 14 23 21 28 34 32 15 8 2 7 20 13 15 0 0 0 0 0 0 0 0 0 0 0 0 0 0 5 0 0 57 42 31
46 49 70 76 103 78 67 43 2 6 9 16 12 9 17 12 13 21 11 3 0 0 0 0 0 0 0 0 0 0 0 0 0 0 0 0 0 0 0 0 0 57 32
12 62 55 43 64 71 55 5 5 5 3 8 17 18 22 15 6 12 6 9 19 24 15 1 0 0 0 0 0 0 0 0 0 0 0 0 0 0 0 0 0 0 8